Regional Weather Roundup
Issued by NWS

Home | Current Version | Previous Version | Text Only | Print | Product List | Glossary On
Versions: 1 2 3 4 5 6 7 8 9 10 11 12 13 14 15 16 17 18 19 20 21 22 23 24 25 26 27 28 29 30 31 32 33 34 35 36 37 38 39 40 41 42 43 44 45 46 47 48 49 50
000
ASUS45 KABQ 231210
RWRNM
NEW MEXICO REGIONAL WEATHER ROUNDUP
NATIONAL WEATHER SERVICE ALBUQUERQUE NM
500 AM MST TUE JAN 23 2018

NOTE: "FAIR" MEANS FEW OR NO CLOUDS BELOW 12,000 FEET AGL WITH NO
       SIGNIFICANT WEATHER OR OBSTRUCTIONS TO VISION.

      THIS PRODUCT IS RELEASED AS TWO VERSIONS.  ONE VERSION NEAR
      THE TOP OF THE HOUR CONTAINING PRELIMINARY DATA FROM ALBUQUERQUE
      AND OTHER STATIONS.  A FINAL VERSION WITH ADDITIONAL DATA IS
      ISSUED ABOUT 10 MINUTES AFTER THE HOUR.

NMZ501-503-504-510>518-231300-
NORTHWEST PLATEAU/NORTHCENTRAL MOUNTAINS

CITY           SKY/WX    TMP DP  RH WIND       PRES   REMARKS
FARMINGTON     FAIR       8   6  92 NE5       30.28R WCI   0
6HR MIN TEMP:   8; 6HR MAX TEMP:  16;

LOS ALAMOS     FAIR      18   2  50 NW3       30.19S
SANTA FE       FAIR      18  11  74 N16       30.19S WCI   3
6HR MIN TEMP:  15; 6HR MAX TEMP:  21;

TAOS           FAIR       2  -2  83 MISG      30.25R
ANGEL FIRE     FAIR     -15 -21  77 CALM      30.17S

$$
NMZ402-403-502-505>509-231300-
WESTCENTRAL MOUNTAINS/SOUTHWEST MOUNTAINS

CITY           SKY/WX    TMP DP  RH WIND       PRES   REMARKS
GALLUP         FAIR       2  -2  83 CALM      30.26R
6HR MIN TEMP:   0; 6HR MAX TEMP:  10;

GRANTS         FAIR       6  -2  69 NW8       30.27R WCI  -6
SILVER CITY    FAIR      20   1  43 N10       30.17R WCI   8

$$
NMZ407-409-411-412-231300-
SOUTHERN DESERTS

CITY           SKY/WX    TMP DP  RH WIND       PRES   REMARKS
DEMING         FAIR      20  -1  40 CALM      30.18S
6HR MIN TEMP:  17; 6HR MAX TEMP:  28;

LAS CRUCES     FAIR      27   4  37 N8        30.19S WCI  18
HOLLOMAN AFB   FAIR      15  -4  43 NE6       30.22S WCI   6
ALAMOGORDO     FAIR      19   0  42 NE3       30.20S
T OR C         FAIR      25   5  42 NW8       30.21S WCI  16
6HR MIN TEMP:  24; 6HR MAX TEMP:  33;


$$
NMZ519>523-231300-
CENTRAL VALLEYS/CENTRAL HIGHLANDS

CITY           SKY/WX    TMP DP  RH WIND       PRES   REMARKS
ALBUQUERQUE    FAIR      21  10  62 N7        30.24S WCI  12
6HR MIN TEMP:  20; 6HR MAX TEMP:  30;

MORIARTY ARPT  FAIR       5   0  79 CALM      30.21S
6HR MIN TEMP:   2; 6HR MAX TEMP:  12;

CLINES CORNERS FAIR      15   6  67 NW15      30.16R WCI   0
6HR MIN TEMP:  13; 6HR MAX TEMP:  20;

BELEN          FAIR      15   6  68 N8        30.25S WCI   4
6HR MIN TEMP:  14; 6HR MAX TEMP:  23;

SOCORRO        FAIR      19   7  58 N8        30.24S WCI   9
6HR MIN TEMP:  19; 6HR MAX TEMP:  25;


$$
NMZ524>526-539-540-231300-
SOUTHCENTRAL MOUNTAINS

CITY           SKY/WX    TMP DP  RH WIND       PRES   REMARKS
RUIDOSO        NOT AVBL

$$
NMZ527>531-231300-
NORTHEAST HIGHLANDS/NORTHEAST PLAINS

CITY           SKY/WX    TMP DP  RH WIND       PRES   REMARKS
LAS VEGAS      FAIR      15  -8  35 NE6       30.12S WCI   6
6HR MIN TEMP:  11; 6HR MAX TEMP:  25;

RATON          FAIR      12  -1  56 NE9       30.13R WCI   0
6HR MIN TEMP:   7; 6HR MAX TEMP:  15;

CLAYTON        FAIR      21   5  50 N9        30.15R WCI  11
6HR MIN TEMP:  18; 6HR MAX TEMP:  28;


$$
NMZ532>537-231300-
EASTCENTRAL PLAINS

CITY           SKY/WX    TMP DP  RH WIND       PRES   REMARKS
TUCUMCARI      FAIR      16   0  49 CALM      30.14R
6HR MIN TEMP:  13; 6HR MAX TEMP:  28;

CANNON AFB     FAIR      24   3  39 W10       30.17S WCI  14
6HR MIN TEMP:  24; 6HR MAX TEMP:  34;

CLOVIS AIRPORT FAIR      18   4  54 W6        30.17R WCI  10

$$
NMZ028-029-538-231300-
SOUTHEAST PLAINS

CITY           SKY/WX    TMP DP  RH WIND       PRES   REMARKS
ROSWELL        FAIR      24   3  40 NW6       30.19S WCI  17
6HR MIN TEMP:  22; 6HR MAX TEMP:  33;

ARTESIA        FAIR      21  -2  35 NW9       30.21R WCI  11
CARLSBAD       FAIR      21   3  45 NW3       30.19R
6HR MIN TEMP:  21; 6HR MAX TEMP:  36;

HOBBS          FAIR      19   0  42 NW8       30.20R WCI   9


$$



USA.gov is the U.S. government's official web portal to all federal, state and local government web resources and services.